Content
SEND FEEDBACK

Daily
Averages
Monthly
Summary
United Kingdom

BEDFORD, ENGLAND


Home > Europe > United Kingdom > England
Elevation: 293 feet     Latitude: 52 13N     Longitude: 000 29W

WEATHER
 
SELECT A DAY
Number of Records: 72,580;   Date Range: 7/1/96 - 8/28/14
 
SHARE

PRINT THIS DATA

[ ← Previous Day ]
WEATHER ALMANAC - JULY 11, 2013
[ Next Day → ]
[ °C ]   °F
Weather ElementAverageHighLow
Temperature62.8 °F68 °F (3:20 pm)53.6 °F (8:20 am)
Dewpoint49.5 °F51.8 °F (1:20 pm)48.2 °F (8:20 am)
Humidity62.5 %82 % (8:20 am)49 % (4:20 pm)
Barometer30.29 in30.30 in (8:20 am)30.27 in (1:50 pm)
Wind Speed10.7 mph11.5 mph (8:50 am)
Weather ElementAverage
Visibility6.2 mi
Wind DirectionNE (41.5 °)

Weather ElementTotal
Precipitation---
Heating Degree Days4.2 (Base 65)
Growing Degree Days10.8 (Base 50)
Averaged from 20 records on July 11, 2013
WEATHER CONDITIONS BREAKOUT
WIND DIRECTION BREAKOUT
WEATHER BY HOUR - JULY 11, 2013
[ °C ]   °F
Local TimeTemperatureDewpointHumidityBarometerVisibilityWind DirectionWind SpeedGust SpeedPrecipitationEventsConditions
8:20 AM53.6 °F48.2 °F82 %30.30 in6.2 miNE (40°)9.2 mphMostly Cloudy
8:50 AM55.4 °F48.2 °F77 %30.30 in6.2 miNNE (30°)11.5 mphMostly Cloudy
9:20 AM55.4 °F48.2 °F77 %30.30 in6.2 miNNE (30°)10.4 mphMostly Cloudy
9:50 AM57.2 °F48.2 °F72 %30.30 in6.2 miENE (60°)11.5 mphMostly Cloudy
10:20 AM57.2 °F48.2 °F72 %30.30 in6.2 miNE (50°)9.2 mphMostly Cloudy
10:50 AM59.0 °F50.0 °F72 %30.30 in6.2 miNE (40°)11.5 mphMostly Cloudy
11:20 AM60.8 °F50.0 °F68 %30.30 in6.2 miNE (40°)9.2 mphScattered Clouds
11:50 AM62.6 °F50.0 °F63 %30.30 in6.2 miNNE (30°)10.4 mphPartly Cloudy
12:20 PM62.6 °F50.0 °F63 %30.30 in6.2 miNE (50°)11.5 mphPartly Cloudy
12:50 PM62.6 °F50.0 °F63 %30.30 in6.2 miNE (50°)11.5 mphPartly Cloudy
1:20 PM64.4 °F51.8 °F64 %30.30 inNNE (30°)10.4 mphClear
1:50 PM64.4 °F50.0 °F59 %30.27 inNE (40°)10.4 mphClear
2:20 PM66.2 °F50.0 °F56 %30.27 inENE (60°)11.5 mphClear
2:50 PM66.2 °F50.0 °F56 %30.27 inNE (50°)9.2 mphClear
3:20 PM68.0 °F50.0 °F52 %30.27 inNNE (30°)10.4 mphClear
3:50 PM68.0 °F50.0 °F52 %30.27 inNE (40°)10.4 mphClear
4:20 PM68.0 °F48.2 °F49 %30.27 inNE (40°)10.4 mphClear
4:50 PM68.0 °F48.2 °F49 %30.27 inNNE (30°)11.5 mphClear
5:20 PM68.0 °F50.0 °F52 %30.27 inNE (50°)11.5 mphClear
5:50 PM68.0 °F50.0 °F52 %30.27 inNE (40°)11.5 mphClear
Hourly data recorded from EGTC, located miles away from Bedford, England







STORIES FROM OUR PARTNERS